Theta_e
312 312 311 311 311 310 308 306 304 302 301 300 298 297 297 296 296 296 296 296 296 296 297 297 297 297 297 297 296 296 296 295 295 294 294 293 293 292 292 291 291 290 290 290 290 290 289 289 289 288 287 287 287 287 286 286 286 286 286 286 286 285 285 285 284 285 285 284 284 283 283 283 283 283 284 284 284 284 284 284 284 283 283 283 283
312 312 311 311 311 309 307 305 303 302 301 299 297 297 296 296 296 296 296 296 296 296 296 296 297 297 296 296 296 295 295 295 294 294 294 293 292 292 291 291 290 290 290 289 289 289 289 289 288 288 287 287 287 287 286 286 286 286 286 286 285 285 285 284 284 284 284 284 284 283 283 283 283 283 284 284 284 284 284 284 283 283 283 283 283
312 312 311 311 311 309 306 304 302 301 300 298 297 296 296 296 296 296 296 296 296 296 296 296 296 296 296 295 295 295 294 294 294 293 293 292 292 291 291 290 290 290 290 289 289 289 289 289 288 288 287 287 287 287 286 286 286 286 286 285 285 285 284 284 284 284 284 284 284 283 283 283 283 283 283 284 284 284 284 284 283 283 283 283 283
312 312 312 311 311 309 306 303 301 300 299 298 297 296 296 296 295 295 295 295 295 295 295 295 295 295 295 295 295 294 294 293 293 293 292 292 291 291 290 290 290 290 289 289 289 289 289 289 288 288 288 287 287 287 286 286 286 286 286 285 285 285 284 284 283 283 283 283 283 283 283 283 283 283 283 283 284 284 284 284 283 283 283 283 283
311 312 312 312 311 310 307 303 301 300 299 297 296 296 295 295 295 295 295 295 295 295 295 295 295 295 295 295 294 294 293 293 293 293 292 291 291 290 290 290 290 289 289 289 289 289 289 289 288 288 288 287 287 287 286 286 286 286 286 285 285 285 284 284 283 283 282 283 283 283 283 283 283 283 283 283 284 284 284 283 283 283 283 283 282
311 311 311 311 311 310 307 304 302 300 299 297 296 295 295 295 295 295 294 294 294 295 295 295 295 295 294 294 294 293 293 293 293 292 291 291 290 290 290 290 290 289 289 289 289 289 289 288 288 288 288 288 287 287 287 286 286 286 285 285 285 285 284 284 283 282 282 282 282 282 282 282 283 283 283 283 283 284 284 284 283 283 282 282 282
310 310 310 311 311 310 308 305 303 301 299 297 296 295 295 294 294 294 294 294 294 294 294 295 295 295 294 294 293 293 293 292 292 291 290 290 290 290 290 289 289 289 289 289 289 289 289 288 288 288 288 288 287 287 287 286 286 286 286 285 285 285 285 284 283 283 282 282 282 282 282 282 282 283 283 283 283 283 283 283 283 283 282 282 282
310 310 310 311 311 310 308 305 303 301 299 297 295 295 294 294 294 294 294 294 294 294 294 294 294 294 294 293 293 292 292 292 291 290 290 290 290 289 289 289 289 289 289 289 289 289 288 288 288 288 288 288 288 287 287 287 286 286 286 285 285 285 285 284 283 283 282 282 282 282 282 282 282 282 282 282 283 282 282 281 282 282 282 282 281
309 310 310 310 311 310 308 305 303 301 300 298 296 295 294 294 294 293 293 294 294 294 294 294 294 294 293 293 292 292 291 291 291 290 290 289 289 289 289 289 289 289 289 289 289 289 288 288 288 288 288 288 288 287 287 287 286 286 286 286 285 285 285 284 284 283 282 282 282 282 282 282 282 282 282 282 282 282 281 280 280 280 281 282 281
308 309 310 310 311 310 307 304 303 302 300 298 296 295 294 294 294 293 293 293 293 293 293 293 293 293 293 293 292 292 291 291 290 289 289 289 289 289 289 289 289 289 289 289 289 288 288 288 287 287 287 287 287 287 287 287 286 286 286 286 286 285 285 284 284 283 282 282 282 281 281 282 281 281 281 281 281 281 280 279 279 279 279 280 281
307 309 310 310 311 310 306 304 303 301 300 298 296 295 294 293 293 293 293 293 293 293 293 293 293 293 292 292 292 291 291 291 290 289 289 289 289 288 288 288 289 289 288 289 288 288 288 287 287 287 287 287 287 287 287 287 286 286 286 286 286 285 285 285 284 283 282 282 281 281 281 281 281 280 280 281 280 280 279 278 277 277 277 277 278
307 308 310 310 311 309 306 303 302 301 300 298 296 295 294 293 293 293 293 292 292 292 292 292 293 292 292 291 291 290 290 290 289 289 289 289 288 288 288 288 288 288 288 288 288 288 288 287 287 286 286 286 287 287 287 287 286 286 286 286 286 285 285 285 284 283 282 281 281 281 281 280 280 280 279 280 280 279 278 277 276 276 276 276 276
306 308 309 310 310 308 305 303 302 301 300 298 296 295 294 293 293 293 292 292 292 292 292 292 292 292 291 291 290 290 290 289 289 289 289 288 288 288 288 288 288 288 288 288 288 288 287 287 286 286 286 286 286 287 287 287 286 286 286 286 285 285 285 285 284 283 282 281 281 281 280 280 280 279 279 279 279 278 278 277 276 276 276 275 275
306 307 309 309 308 306 304 302 302 301 300 298 297 295 294 294 293 292 291 291 291 291 291 292 291 291 291 290 290 289 289 289 289 288 288 288 288 288 288 288 288 288 288 288 288 287 287 287 286 286 286 286 286 286 287 286 286 286 286 286 285 285 285 285 284 283 282 281 281 281 280 279 279 279 279 278 278 277 277 277 276 276 275 275 275
305 307 307 307 306 305 303 302 301 301 300 298 297 296 295 294 293 292 291 291 291 291 291 291 291 291 290 290 289 289 289 289 288 288 288 288 288 288 288 288 288 288 288 288 288 287 287 287 286 286 286 286 286 286 286 286 286 286 286 286 286 285 285 285 284 284 283 281 281 280 280 279 279 278 278 277 277 277 276 276 276 276 275 275 276
304 305 306 306 305 304 303 302 301 301 300 299 298 297 296 295 294 292 291 291 291 291 291 291 290 290 289 289 289 289 288 288 288 288 288 288 288 288 288 288 288 288 288 288 287 287 287 287 287 286 286 286 286 286 286 286 286 286 286 286 285 285 285 285 284 284 283 282 280 280 279 279 278 278 278 277 276 276 276 276 276 275 275 275 276
303 304 304 304 304 303 303 302 301 301 300 299 299 297 296 295 294 293 292 291 291 291 291 290 290 289 289 289 288 288 288 288 288 288 288 288 288 288 287 288 288 287 287 287 287 287 287 287 287 286 286 286 286 286 286 286 286 286 286 286 285 285 285 285 284 284 283 282 280 279 279 278 278 278 278 276 276 275 276 276 276 275 274 275 275
302 302 303 303 303 303 302 301 300 300 299 299 298 298 297 296 295 294 292 291 291 291 290 290 289 289 289 288 288 288 288 287 287 287 287 287 287 287 287 287 287 287 287 287 287 287 287 287 286 286 286 286 286 286 285 285 286 286 286 285 285 285 285 284 284 283 283 281 280 279 279 278 278 278 277 276 275 276 276 275 275 275 274 274 274
301 301 301 301 300 300 299 298 298 298 298 298 298 298 297 296 295 293 292 291 291 290 289 289 289 288 288 288 288 287 287 287 287 287 287 287 287 287 287 287 287 287 287 287 287 287 286 286 286 286 286 286 286 285 285 285 285 285 285 285 285 285 285 284 284 283 282 281 280 279 279 279 278 278 277 276 275 275 275 275 275 274 274 274 274
299 299 299 298 298 298 299 299 299 299 299 298 298 297 296 295 294 293 292 291 290 289 289 288 288 288 288 288 287 287 287 287 286 286 286 287 287 287 287 287 287 287 287 286 286 286 286 286 286 286 286 286 286 285 285 285 285 285 284 284 285 285 284 283 283 282 282 281 280 279 279 279 278 278 276 275 275 275 275 275 274 274 274 274 273
299 299 300 300 301 301 301 301 300 299 298 297 295 295 294 293 292 291 291 290 289 289 288 288 288 288 288 287 287 287 287 287 286 286 286 286 286 286 287 287 286 286 286 286 286 286 286 286 286 286 285 285 285 285 284 284 284 284 284 284 284 284 283 283 283 282 281 281 280 279 279 278 278 277 276 275 274 274 274 274 274 274 273 273 273
301 301 301 302 302 301 301 300 299 297 296 294 293 293 292 291 291 290 290 289 289 288 288 288 288 288 287 287 287 287 287 287 286 286 286 285 285 286 286 286 286 286 286 286 286 286 286 286 286 286 285 285 285 284 284 284 284 284 284 284 284 283 283 282 282 281 281 281 280 279 278 278 277 277 275 275 274 274 274 274 274 273 273 273 273
301 301 301 300 300 299 299 297 296 295 294 293 292 292 291 291 290 290 289 289 289 288 288 288 288 288 288 288 287 287 287 287 287 286 286 286 285 285 285 285 285 285 285 285 285 285 285 285 286 286 286 285 285 285 284 284 283 283 283 283 283 282 281 281 281 280 279 280 279 279 278 277 277 276 275 274 274 274 274 274 273 273 273 273 273
300 300 299 299 298 297 296 295 294 294 293 293 292 292 291 291 290 290 290 289 289 289 289 289 288 288 289 289 289 289 288 288 288 287 287 287 286 286 285 285 285 285 285 285 285 285 285 286 286 286 286 286 285 285 284 284 283 283 283 282 282 281 280 280 280 279 279 279 279 278 278 277 276 276 275 274 274 274 274 273 273 273 273 273 273
298 298 298 297 296 296 295 295 294 294 293 293 293 292 292 292 292 291 291 291 291 290 290 290 290 290 290 291 291 290 290 289 289 289 288 288 287 287 286 286 285 284 284 285 285 285 285 286 286 286 286 285 285 285 285 284 283 283 282 282 281 280 280 279 279 279 279 279 278 278 277 276 276 275 274 274 274 273 273 273 273 272 272 272 272
297 296 296 295 295 295 294 294 294 293 293 293 292 292 292 292 292 292 291 291 291 291 291 291 291 291 291 291 291 291 290 290 290 289 289 289 288 287 287 286 286 285 284 285 285 285 285 285 285 285 285 285 285 285 285 284 283 283 282 281 280 279 279 279 279 279 279 279 278 277 277 276 275 275 274 274 273 273 273 273 273 272 272 272 272
294 294 294 294 293 293 292 292 292 291 291 291 291 290 290 290 290 290 290 290 290 290 290 290 290 290 290 290 290 290 290 289 289 289 289 288 288 287 287 286 286 286 285 285 285 285 285 285 284 285 285 284 284 284 284 284 283 282 282 281 280 279 279 279 279 278 278 278 277 276 276 275 275 274 274 274 273 273 272 272 272 272 272 272 272
293 292 292 292 291 291 291 290 290 290 290 290 290 290 290 290 290 290 290 289 289 289 289 290 290 290 290 290 289 289 289 289 288 288 288 288 288 287 287 287 286 286 285 285 284 284 284 284 284 284 284 283 283 282 282 282 281 281 281 280 279 279 278 278 278 278 277 277 276 276 275 275 274 273 273 273 273 272 272 272 272 272 271 271 271
291 291 291 291 291 290 290 290 290 290 290 290 290 290 290 290 290 290 290 290 289 289 289 289 289 289 289 289 289 289 289 288 288 288 288 287 287 287 287 286 285 285 284 284 283 284 284 283 283 283 283 282 282 281 281 280 279 279 279 278 278 278 277 277 277 277 276 276 275 275 274 274 274 273 273 273 273 272 272 271 271 271 271 271 271
291 291 291 291 290 290 290 290 290 290 290 290 290 290 290 290 290 290 289 289 289 289 289 289 289 289 289 288 288 288 288 288 287 287 287 286 286 286 286 285 284 284 283 283 283 283 283 282 282 282 281 281 281 281 280 279 278 278 278 277 277 277 277 276 276 276 276 275 275 274 274 273 273 273 273 273 272 272 271 271 271 271 271 271 271
291 291 291 291 291 291 291 290 290 290 290 290 290 290 290 290 290 289 289 289 289 289 289 289 288 288 288 288 287 287 287 287 286 286 286 285 285 285 284 284 283 283 282 282 282 282 281 281 281 280 280 279 279 279 279 278 278 278 278 277 277 277 276 276 276 276 275 275 274 274 273 273 273 272 272 272 272 271 271 271 271 271 271 271 271
291 291 291 291 291 291 291 290 290 290 290 290 290 290 290 290 290 289 289 289 289 289 289 288 288 288 288 288 287 287 287 286 286 286 285 285 285 284 284 283 282 281 280 280 280 280 280 279 279 279 278 278 278 278 277 277 277 277 277 277 277 276 276 276 276 275 275 274 274 274 273 273 272 272 272 271 271 271 271 270 270 270 270 270 270
291 291 291 291 291 290 290 290 290 290 290 290 290 290 290 289 289 289 289 289 289 288 288 288 288 288 287 287 287 287 286 286 286 285 285 285 284 284 284 283 281 280 278 278 278 278 277 277 277 277 277 277 277 277 277 277 276 276 276 276 276 276 276 276 275 275 275 274 274 273 273 273 272 272 272 271 271 271 270 270 270 270 270 270 270
291 290 290 290 290 290 290 290 290 290 290 289 289 289 289 289 289 289 289 288 288 288 288 287 287 287 286 286 286 286 285 285 284 284 284 283 283 283 282 282 280 279 278 277 277 277 277 277 277 277 276 276 276 276 275 275 275 275 276 276 275 275 275 275 275 275 274 273 273 273 273 272 272 272 271 271 270 270 270 270 270 270 270 270 270
290 290 290 290 290 290 290 289 289 289 289 289 289 289 289 289 289 288 288 288 288 287 287 287 286 286 286 285 285 284 284 284 284 283 283 283 283 282 281 280 279 278 277 277 277 277 277 277 277 277 276 276 276 275 275 274 274 274 274 274 274 274 274 274 274 274 273 272 272 272 272 272 271 271 271 270 270 270 269 269 269 269 269 270 270
290 289 289 289 289 290 290 290 289 289 289 289 289 289 289 289 288 288 287 287 286 286 286 286 286 285 285 285 284 284 283 283 283 283 282 282 282 281 280 279 279 278 278 277 276 276 276 276 276 276 276 276 275 275 275 274 274 273 273 273 272 272 272 272 272 272 272 271 271 271 271 271 271 271 270 270 270 269 269 269 269 269 269 269 269
290 290 290 290 290 290 290 290 289 289 289 289 289 289 288 288 287 287 286 286 285 285 285 285 284 284 284 284 284 283 283 282 282 282 281 280 280 279 278 278 277 277 277 276 276 275 275 275 275 275 275 275 274 274 274 274 273 273 272 272 271 271 271 271 271 271 271 271 271 271 270 270 270 270 270 270 269 269 269 269 269 269 269 269 269
290 290 290 290 290 289 289 289 289 289 289 288 288 288 287 287 287 286 286 285 285 284 284 284 283 283 283 283 283 282 281 281 280 279 278 278 277 276 276 275 275 275 274 274 274 273 273 273 272 272 272 272 272 272 272 272 272 271 271 271 270 270 270 270 270 270 270 270 270 270 270 269 269 269 269 269 269 269 269 269 269 269 269 269 269
290 290 290 289 289 289 289 289 288 288 288 287 287 287 286 286 286 285 285 284 284 284 283 283 282 282 281 280 280 280 279 278 277 276 276 275 275 274 274 274 274 273 273 273 273 272 272 271 271 270 270 270 269 269 269 269 269 269 269 269 269 269 269 269 269 269 269 269 269 269 269 269 269 269 268 268 268 268 268 268 268 269 269 269 269
290 289 289 289 289 288 288 288 287 287 287 286 286 286 285 285 284 284 284 283 283 282 282 281 280 279 278 278 277 277 277 276 275 275 274 274 274 273 273 273 273 273 273 272 272 272 271 271 270 270 269 269 268 268 267 267 267 267 267 267 267 267 267 267 267 267 268 268 268 268 268 268 268 268 268 268 268 268 268 268 268 268 268 268 268
289 289 288 288 288 287 287 287 286 286 285 285 285 284 284 284 283 283 282 282 281 280 280 279 278 277 277 276 276 276 275 274 274 274 274 273 273 273 273 273 273 273 272 272 272 272 271 271 270 270 269 268 267 267 267 266 266 266 265 265 265 266 266 266 266 266 267 267 267 267 268 268 267 267 267 267 268 268 268 268 268 268 268 268 267
288 288 287 287 287 286 286 285 285 284 284 284 283 283 283 282 282 281 280 280 279 278 278 277 276 276 275 275 274 274 274 274 273 273 273 273 273 272 272 272 272 272 272 271 271 271 270 270 269 269 268 267 267 266 266 266 266 265 265 265 265 265 265 265 265 266 266 266 267 267 267 267 267 267 267 267 267 268 268 268 268 268 268 267 267
287 286 286 286 285 285 284 284 283 283 283 282 282 282 281 281 280 279 279 278 277 277 276 276 275 275 274 274 274 273 273 273 273 272 272 272 272 272 272 271 271 271 271 271 270 270 270 269 268 268 267 267 266 266 266 266 265 265 265 265 264 264 264 264 265 265 265 266 266 266 266 266 266 266 267 267 267 267 267 267 268 267 267 267 266
286 285 285 285 284 284 283 283 282 282 282 281 281 280 280 279 278 278 277 277 276 275 275 275 274 274 274 273 273 272 272 272 272 272 272 272 271 271 271 271 271 271 270 270 270 269 269 268 268 267 267 266 266 266 265 265 265 265 265 265 265 264 264 264 264 264 265 265 265 265 265 266 266 266 267 267 267 267 267 267 267 267 267 266 265
285 284 284 284 283 283 282 282 282 281 281 280 280 279 279 278 277 277 276 276 275 275 274 274 273 273 273 272 272 272 272 272 272 271 271 271 271 271 270 270 270 270 270 270 269 269 268 268 267 267 267 266 266 266 265 265 265 265 265 265 265 265 265 264 264 264 265 265 265 265 265 266 266 266 266 266 267 267 267 267 267 266 266 265 265
284 283 283 283 282 282 281 281 281 280 280 279 279 278 277 277 276 276 275 275 274 274 273 273 273 272 272 272 272 272 272 271 271 271 271 270 270 270 270 270 270 269 269 269 269 268 268 268 267 267 267 266 266 266 266 265 265 265 265 265 265 265 265 265 264 264 265 265 265 265 265 266 266 266 266 266 266 267 266 266 266 266 265 265 265
283 283 282 282 281 281 280 280 279 279 278 278 277 277 276 276 275 275 274 274 273 273 273 272 272 272 272 271 271 271 271 271 271 270 270 270 270 269 269 269 269 269 268 268 268 268 268 268 267 267 267 267 266 266 266 265 265 265 265 265 265 265 265 265 265 265 265 265 265 265 265 266 266 266 266 266 266 266 266 266 266 265 265 265 265
281 281 280 280 279 279 278 278 277 277 277 276 276 275 275 274 274 274 273 273 273 272 272 272 272 271 271 271 271 271 271 270 270 270 269 269 269 269 269 269 268 268 268 268 268 267 267 267 267 267 267 267 267 266 266 266 266 265 265 265 265 265 265 265 265 265 265 265 265 265 265 266 266 266 266 266 266 266 266 265 265 265 265 265 265
279 279 278 278 278 277 277 276 276 276 275 275 275 274 274 274 273 273 273 273 272 272 272 271 271 271 271 271 271 271 270 270 269 269 269 269 268 268 268 268 268 268 268 268 268 267 267 267 267 267 267 267 267 267 267 266 266 266 266 265 265 265 265 265 265 265 265 265 265 265 265 266 266 266 266 266 266 265 265 265 265 265 265 265 265
278 277 277 276 276 276 275 275 275 274 274 274 274 273 273 273 273 272 272 272 272 272 271 271 271 271 271 271 270 270 269 269 269 269 268 268 268 268 269 269 269 269 269 268 268 268 268 267 267 267 266 266 267 267 267 267 266 266 266 266 266 266 266 265 265 265 265 265 265 266 266 266 266 266 266 265 265 265 265 265 265 265 265 265 265
276 276 276 275 275 274 274 274 274 273 273 273 273 272 272 272 272 272 271 271 271 271 271 271 271 271 270 270 270 269 269 268 268 268 268 269 269 269 269 269 269 269 269 269 268 268 268 268 268 267 267 267 267 267 266 266 266 266 266 266 266 266 266 266 266 266 266 266 266 266 266 266 266 266 265 265 265 265 265 265 265 265 265 265 265
Wind_Speed
38 37 35 34 34 35 36 38 38 39 40 40 39 37 35 34 33 32 32 31 30 29 27 26 24 23 22 21 20 18 17 16 15 15 14 12 12 12 12 13 12 11 9 7 6 6 7 8 9 9 10 10 11 11 12 13 13 14 15 16 16 18 19 20 24 26 23 21 21 21 21 23 24 24 26 26 26 27 29 31 33 34 36 37 38
39 37 35 35 35 36 37 39 40 41 41 41 40 38 36 35 34 34 33 32 31 29 28 26 25 24 23 22 21 19 18 17 17 16 15 14 13 14 14 14 13 11 9 8 7 7 8 8 9 9 10 11 11 12 13 13 14 14 15 17 17 18 20 21 23 26 27 25 24 23 23 24 25 25 27 28 29 29 31 32 34 35 37 38 39
38 37 36 36 36 36 38 40 41 42 42 42 41 39 37 37 36 35 34 33 32 30 28 27 26 25 24 23 21 20 20 19 18 17 16 15 15 15 15 14 14 12 10 9 8 8 8 9 9 10 10 11 12 13 14 14 14 15 16 17 18 19 20 22 24 26 28 28 26 25 25 26 27 27 28 29 30 31 32 33 35 36 37 38 40
39 38 38 37 36 37 38 40 41 43 44 43 42 40 39 38 37 36 35 34 32 31 29 28 27 26 25 24 23 22 22 21 20 18 17 17 17 17 16 15 14 13 11 10 9 9 9 9 10 11 11 13 13 14 15 15 15 16 17 18 19 20 21 22 24 26 28 29 29 28 27 28 28 29 30 30 32 33 34 35 36 37 37 38 39
40 39 39 39 38 38 39 41 43 44 45 44 43 41 40 39 38 37 36 35 33 32 31 30 29 28 26 25 23 23 23 22 21 19 19 19 18 17 17 16 15 14 12 11 10 10 11 11 11 12 13 14 15 15 16 16 17 17 18 19 20 21 22 23 24 26 28 30 31 30 29 29 29 30 30 32 33 34 35 36 37 38 38 38 39
42 41 41 40 39 39 40 42 44 45 46 45 44 42 41 40 40 39 37 36 34 33 32 31 30 29 27 25 24 24 24 23 22 21 20 20 19 18 18 17 16 15 14 12 12 12 12 12 13 13 14 16 17 17 17 18 18 19 19 20 21 23 24 24 25 27 28 30 31 31 31 30 31 31 31 32 34 36 37 38 38 38 39 40 39
43 43 42 42 41 41 42 43 44 45 46 46 44 43 43 41 40 39 38 37 35 35 34 33 31 29 27 26 26 26 25 24 23 22 22 21 20 19 19 18 17 16 15 14 14 13 13 14 14 15 16 17 19 19 19 19 19 20 20 21 23 24 25 26 26 28 29 30 31 32 32 32 31 31 32 33 35 36 37 39 40 39 39 40 40
45 44 44 43 43 42 42 43 43 45 47 47 46 44 43 42 40 39 38 38 37 36 35 33 31 30 28 27 28 28 27 26 25 25 24 22 21 20 20 19 18 17 17 16 15 15 15 15 16 16 17 19 20 21 21 20 20 20 20 22 24 25 26 26 27 29 30 31 32 32 32 32 32 32 33 34 35 36 37 38 40 41 40 39 39
46 45 45 45 44 43 42 43 44 45 47 48 47 45 43 42 41 40 40 39 38 37 35 34 32 30 29 29 30 30 29 28 27 26 25 23 22 21 21 20 19 19 19 18 17 17 16 17 17 17 18 20 21 23 22 22 22 21 21 22 24 26 26 27 28 29 31 32 33 32 33 33 32 32 33 34 34 36 36 36 37 39 39 38 38
46 46 47 46 45 44 43 44 44 46 48 48 47 46 44 43 42 42 41 40 39 38 36 35 33 32 31 31 32 32 31 29 28 27 25 23 23 23 22 21 21 20 20 20 19 18 18 19 19 19 20 21 22 24 24 24 23 23 23 23 24 25 26 27 28 30 31 32 33 32 33 33 32 32 33 34 34 35 35 35 36 37 36 38 39
45 46 47 46 45 44 44 45 45 45 47 48 48 46 45 44 43 43 43 41 40 39 37 36 35 33 33 33 33 33 32 30 28 27 26 25 25 24 23 22 22 22 22 22 21 20 20 21 21 21 22 23 24 24 25 25 25 24 25 26 26 26 27 28 29 30 31 33 33 33 33 33 32 32 32 33 34 34 34 33 33 33 34 36 39
45 46 46 45 45 45 45 45 44 44 46 48 48 46 45 44 44 44 44 43 41 40 39 37 36 35 35 35 35 34 32 30 29 28 28 27 27 26 25 24 24 24 24 24 23 22 22 22 23 23 24 25 25 26 26 26 26 26 26 27 28 28 28 28 29 31 32 34 34 34 33 33 33 32 31 32 33 33 33 31 30 32 34 36 38
45 45 45 45 46 45 44 44 44 44 45 47 47 45 45 45 45 45 45 44 43 41 39 38 37 37 37 36 36 35 33 31 29 29 29 29 29 28 27 26 26 26 26 25 24 25 25 24 25 26 26 26 27 27 27 27 27 27 28 29 29 28 29 29 30 31 33 35 36 35 34 33 33 32 31 31 31 32 33 33 32 34 36 36 37
44 44 45 45 45 44 43 43 42 42 43 44 45 45 44 44 45 46 46 45 43 42 40 39 39 38 38 37 36 35 33 31 30 30 31 31 30 30 29 28 28 28 28 27 27 27 26 26 27 28 28 28 29 29 29 28 28 29 30 30 30 30 29 29 30 31 33 35 36 36 35 33 33 33 31 27 27 29 32 34 35 36 37 36 36
43 43 44 43 43 42 41 41 41 41 41 42 43 44 44 45 46 46 46 44 43 41 40 40 40 39 38 37 36 36 34 32 32 32 32 32 32 32 31 31 31 31 30 30 30 30 29 28 29 30 30 30 30 30 30 29 30 31 32 32 32 31 31 30 30 31 33 34 35 35 35 34 33 32 28 24 26 30 32 34 35 35 36 36 35
40 41 41 41 40 40 40 39 39 38 39 40 42 43 44 45 45 45 44 43 43 42 42 41 41 39 38 37 37 37 35 33 33 33 33 34 34 34 34 34 34 34 33 33 33 32 31 31 32 32 32 32 32 32 31 31 32 33 34 34 33 33 33 32 31 31 32 33 34 35 35 33 32 30 26 23 26 30 32 34 33 32 34 35 34
36 36 37 37 37 37 37 37 37 37 38 40 41 43 43 43 43 42 43 43 44 43 43 42 41 39 38 38 38 37 35 34 33 34 34 35 36 37 37 36 36 36 36 35 35 35 35 35 35 35 34 34 33 33 32 32 34 35 36 35 35 35 35 33 32 32 33 33 34 34 33 32 31 29 26 24 27 29 31 33 31 30 32 33 33
29 30 30 31 32 32 33 33 34 34 34 35 36 38 39 40 41 42 43 44 44 43 43 42 40 39 38 38 38 37 36 35 34 34 35 36 38 39 38 38 38 38 38 38 37 37 38 38 37 37 36 36 35 34 33 33 35 36 37 37 37 38 37 35 33 33 33 33 34 34 33 32 31 29 25 24 26 27 30 31 30 30 31 31 32
21 22 22 24 25 26 27 27 27 28 29 30 31 33 36 38 40 41 42 42 42 42 42 41 39 38 38 38 38 37 36 35 35 35 36 37 39 40 40 40 41 41 40 40 40 40 40 40 40 39 38 37 37 36 34 34 36 37 37 38 39 40 38 36 35 34 34 34 34 34 33 33 31 27 24 24 25 26 28 29 29 29 29 29 30
13 13 14 15 16 17 18 20 21 22 24 25 26 29 32 35 37 39 39 40 41 41 40 40 39 38 38 38 37 37 36 35 35 36 36 37 39 40 41 42 43 42 42 41 42 42 42 42 41 40 40 39 39 37 36 35 37 37 38 40 41 40 38 36 36 36 35 35 35 34 34 33 31 26 24 25 26 26 27 28 28 27 27 28 28
7 8 8 10 11 13 15 16 17 18 19 20 22 25 28 30 32 34 35 36 38 39 39 39 38 38 38 38 38 37 36 35 35 36 36 37 38 40 42 43 43 43 43 43 44 45 44 44 43 42 42 41 40 39 38 38 38 39 40 41 41 39 38 37 37 36 36 36 35 34 34 33 30 27 26 26 26 26 27 27 26 26 26 27 27
8 8 9 10 12 14 16 17 17 17 17 19 20 22 23 25 27 28 30 32 33 34 35 35 36 36 36 36 36 35 34 34 34 35 35 35 37 39 42 44 44 44 45 46 46 47 46 46 45 45 44 44 43 41 40 39 40 41 42 41 40 40 38 37 37 36 36 36 36 35 35 34 32 29 28 28 27 27 27 26 25 25 25 26 25
9 9 10 12 14 16 16 16 15 15 16 16 17 18 19 21 23 24 25 27 28 29 30 31 32 33 33 33 33 32 32 32 32 33 33 34 35 38 40 43 44 45 46 47 48 48 48 48 47 47 47 47 46 44 42 41 41 42 42 41 41 40 37 36 37 37 36 36 37 38 37 35 33 31 30 29 28 27 26 25 25 25 25 25 24
9 10 12 14 15 15 14 14 14 14 14 14 15 16 17 18 20 21 22 23 24 25 26 27 28 29 30 30 30 30 30 30 31 31 32 33 35 36 38 40 42 45 47 48 49 49 49 49 49 49 49 49 48 47 46 44 43 43 42 41 41 39 36 36 38 38 37 38 39 39 38 37 35 32 31 29 28 27 26 25 25 25 26 26 25
10 12 13 14 14 14 13 13 14 13 13 14 14 15 15 16 17 18 19 20 21 22 23 24 25 27 28 28 28 28 28 29 30 31 32 34 35 36 37 38 40 43 46 48 48 49 49 49 50 50 50 50 50 49 49 47 45 43 43 41 40 38 37 37 37 37 38 40 40 40 39 38 36 33 31 29 28 26 25 25 25 25 26 27 26
12 13 13 13 13 13 12 12 12 11 11 11 11 12 12 13 14 15 16 17 18 19 20 22 23 24 25 25 25 26 27 28 30 31 32 34 35 36 37 38 39 39 41 43 44 45 46 47 48 49 49 49 49 49 49 48 45 42 41 39 37 36 36 37 37 38 39 40 40 41 40 38 36 34 31 30 28 26 25 26 26 25 25 27 29
13 12 12 12 12 11 10 10 9 9 9 8 8 9 10 10 12 13 14 15 17 18 19 21 22 23 24 24 25 27 28 30 31 32 33 34 35 36 37 37 37 37 37 38 38 39 40 41 42 44 46 47 47 48 48 48 46 43 41 38 35 34 35 35 36 38 39 40 40 41 40 39 37 34 31 30 29 26 25 26 27 27 26 28 30
11 11 11 11 11 10 9 9 8 7 7 7 8 9 10 11 12 13 14 16 17 19 20 22 23 24 25 27 28 29 31 32 33 33 34 35 36 37 37 38 37 37 37 36 36 36 37 37 38 40 42 44 46 47 47 47 45 44 42 40 37 35 34 34 35 37 38 38 39 39 39 39 37 34 31 30 28 25 24 26 28 28 27 29 30
10 10 11 10 9 9 8 7 7 7 8 9 10 12 13 15 16 17 18 19 21 22 23 25 26 27 28 29 30 32 33 33 34 35 36 37 38 38 38 38 37 36 35 34 35 36 37 36 37 38 39 41 43 45 45 45 44 43 42 41 39 37 36 36 37 37 36 36 37 38 39 39 37 34 31 29 28 25 25 26 27 27 28 29 31
8 8 8 8 8 8 8 9 10 10 12 13 14 15 17 18 19 20 21 22 23 24 25 26 27 28 29 30 31 32 34 34 35 36 36 37 37 38 38 37 36 35 32 31 31 33 34 33 34 34 35 36 39 41 42 42 42 43 42 40 40 40 39 39 39 38 37 37 38 38 38 38 36 33 30 29 27 25 25 26 26 27 28 29 31
7 7 8 8 9 10 10 11 12 12 13 14 15 16 17 18 19 20 20 21 22 23 24 25 26 27 28 29 29 31 32 32 33 34 34 35 35 34 34 34 33 31 28 26 27 29 29 28 30 30 30 32 35 36 37 38 39 40 40 39 39 38 39 38 38 37 36 35 35 35 35 34 33 31 29 28 28 26 25 25 26 27 28 29 31
8 9 9 10 11 11 12 12 12 13 13 14 15 16 17 18 19 20 21 21 22 22 23 24 25 26 27 28 28 29 30 30 31 31 31 32 31 31 30 29 28 26 22 20 23 26 27 26 27 27 27 29 31 32 33 34 35 36 37 37 36 35 34 33 31 31 31 30 30 32 32 31 30 30 29 28 28 27 26 25 25 26 27 28 30
10 11 12 12 12 12 12 12 13 14 15 16 17 18 18 19 20 20 21 22 22 23 23 24 25 26 26 27 28 28 29 29 29 29 29 29 29 29 28 27 24 21 18 17 20 23 25 27 28 29 29 31 32 33 34 35 35 36 36 36 35 34 33 31 30 30 30 30 30 31 32 31 30 30 29 28 28 28 27 26 25 25 26 28 29
13 13 14 14 13 13 13 14 14 15 16 17 17 18 18 19 19 20 21 22 22 23 23 24 24 25 25 25 26 26 26 26 26 26 26 26 27 27 27 26 23 20 18 18 19 21 22 24 26 27 27 28 28 29 31 32 34 35 36 36 35 34 33 33 32 31 30 29 30 32 32 32 30 29 29 28 28 28 27 26 25 25 26 27 28
13 14 14 14 14 14 14 15 15 15 16 17 17 18 18 19 19 20 21 21 22 23 23 23 24 23 23 22 22 22 23 23 24 24 24 24 25 24 24 24 25 23 22 21 22 24 25 26 27 28 28 29 28 28 28 28 29 30 31 32 32 31 30 30 29 29 29 29 30 31 32 31 29 29 29 29 29 28 27 25 24 25 26 27 28
12 13 13 13 14 14 14 15 15 15 16 16 17 18 19 19 20 20 20 20 20 21 21 21 22 22 21 21 20 20 21 21 22 23 23 24 24 23 23 24 25 26 26 26 26 27 29 31 32 34 35 36 36 36 35 34 33 31 30 29 28 27 26 27 27 28 28 28 28 29 30 29 27 27 29 30 29 27 26 24 24 25 26 26 28
11 12 13 13 13 14 14 14 15 15 16 17 18 18 19 19 19 19 18 18 18 18 18 18 19 20 21 21 21 21 21 21 21 22 22 23 23 23 23 24 25 27 27 28 29 29 30 32 33 35 37 39 40 41 41 40 39 37 34 33 30 28 27 27 27 27 26 26 26 27 27 26 26 26 28 29 28 26 25 24 24 25 25 26 27
11 12 12 12 13 13 14 14 15 16 16 17 17 17 18 18 18 17 17 17 17 17 17 17 18 18 19 20 21 22 22 21 21 21 21 22 22 23 23 24 25 26 27 27 28 29 30 32 32 34 35 37 38 40 41 42 42 40 39 37 35 33 30 28 26 24 24 24 25 25 25 25 25 26 27 28 27 26 24 23 24 25 25 26 27
11 12 12 12 13 13 14 15 15 15 16 16 16 16 16 16 16 16 17 17 17 18 18 18 17 17 18 18 20 21 21 21 20 20 20 21 21 21 22 22 22 23 24 25 26 27 29 30 31 31 32 33 33 35 36 37 38 39 38 38 37 34 31 27 25 24 24 25 24 24 23 24 25 26 27 27 26 24 24 24 24 25 25 26 26
12 12 12 12 13 13 13 14 14 14 15 15 15 15 15 15 16 16 17 17 17 17 18 17 17 17 17 18 20 21 20 19 19 19 18 18 18 18 19 20 21 22 23 24 25 26 27 28 28 29 29 29 28 29 30 31 32 32 32 32 32 30 28 25 24 24 25 26 25 24 23 23 25 26 26 25 24 23 24 24 24 24 25 26 26
12 12 12 12 12 12 12 12 12 13 13 13 14 14 15 15 16 16 16 17 17 17 17 18 18 18 18 18 20 20 19 17 17 17 17 17 18 18 19 20 21 22 23 23 24 25 26 26 26 26 26 26 25 26 26 27 28 28 27 27 27 27 26 25 25 25 26 26 26 25 24 24 25 26 25 23 23 23 24 24 23 24 25 25 25
11 11 11 11 11 10 10 10 10 11 12 13 14 14 15 16 16 16 16 17 17 17 18 18 18 18 18 18 18 19 18 17 17 17 18 18 19 20 21 21 21 22 22 23 24 24 24 24 23 23 24 24 24 24 25 25 26 26 25 25 25 25 26 25 25 25 25 25 25 25 24 23 24 24 23 22 22 23 23 23 23 24 25 24 24
10 10 10 9 9 9 10 11 12 13 13 14 14 15 15 15 15 16 17 17 18 18 18 18 18 18 18 17 17 17 17 18 18 18 19 20 21 21 22 21 21 21 22 22 23 23 23 22 22 21 21 22 22 23 23 23 24 24 24 24 24 24 25 24 23 23 22 23 23 22 22 22 22 22 21 21 22 22 22 23 23 24 24 23 23
9 9 8 8 9 10 12 13 14 14 14 14 14 14 15 15 16 17 17 18 18 18 18 18 18 18 17 17 17 17 17 18 19 20 20 21 21 21 21 21 21 20 20 21 21 21 21 21 21 20 20 20 21 21 21 21 21 22 22 23 23 24 24 23 21 20 19 20 20 20 19 20 20 20 20 21 21 21 22 22 23 23 23 22 21
8 8 9 10 11 13 14 14 14 14 14 14 15 15 16 17 18 18 18 18 18 18 18 17 17 17 17 17 17 17 18 19 19 20 21 21 21 21 21 21 20 20 20 20 20 20 20 20 20 20 19 18 19 19 20 20 20 20 20 20 21 20 19 19 18 18 18 18 18 18 18 19 19 20 20 20 20 21 22 22 22 22 21 20 19
9 9 10 12 13 14 14 14 14 14 15 15 16 17 17 18 18 18 18 18 18 17 17 17 16 16 16 16 17 18 19 20 20 20 21 21 21 21 20 20 19 19 19 19 19 19 19 19 20 19 19 18 18 18 18 19 19 19 19 18 17 16 14 14 15 16 16 17 17 17 18 19 19 19 19 20 20 21 21 21 21 20 19 18 17
10 11 12 13 13 13 13 14 14 15 16 16 17 18 18 18 18 18 18 18 17 17 17 16 16 16 16 17 18 19 20 20 20 20 20 20 20 20 20 19 19 19 19 19 19 19 19 19 19 19 19 18 17 17 17 17 18 18 18 17 16 15 13 13 14 15 16 17 17 18 18 19 19 19 19 20 21 21 20 20 19 19 17 16 16
11 12 12 12 13 13 14 14 15 16 16 17 17 17 17 17 17 17 17 17 17 17 17 17 17 17 18 19 19 20 21 21 20 20 20 20 20 19 19 19 18 18 18 18 18 19 19 19 19 19 19 18 17 17 17 17 17 17 17 17 17 16 15 14 15 15 16 17 18 18 19 19 19 20 20 20 20 20 19 19 18 17 16 15 15
11 12 12 13 13 14 14 15 15 16 16 16 17 17 17 17 17 17 17 17 17 17 18 18 18 19 20 20 20 21 21 21 20 20 19 19 19 18 18 18 17 17 17 17 17 17 18 19 19 19 19 18 17 17 17 16 17 17 17 17 17 17 17 16 16 16 17 18 18 18 19 19 19 19 19 19 18 18 18 17 16 15 15 15 14
12 12 13 14 14 14 15 15 16 16 16 16 17 17 17 17 17 17 17 17 18 18 19 19 20 20 21 21 21 21 21 21 20 20 19 18 18 18 17 17 16 16 17 16 16 16 17 18 18 19 18 18 17 17 17 17 16 16 16 17 17 17 17 17 17 17 17 18 18 18 18 19 19 18 18 18 17 17 17 16 15 15 15 14 14
13 13 14 14 15 15 15 15 16 16 16 16 16 17 17 17 17 18 18 18 19 19 20 21 21 22 22 22 22 22 21 21 20 20 19 18 18 17 17 17 16 16 16 17 16 16 16 17 18 18 17 17 16 16 16 16 16 16 16 16 16 16 16 17 17 17 17 18 18 18 18 18 18 17 17 16 16 16 16 15 15 15 14 14 15
Wind_Direction
219 221 222 221 219 215 209 204 200 199 201 202 203 201 200 200 199 200 201 201 200 199 198 198 198 197 197 197 197 200 203 205 210 215 218 222 225 231 238 240 241 242 244 255 274 292 306 315 316 310 304 304 305 304 304 303 302 301 300 297 296 295 295 294 294 298 301 301 304 308 310 312 315 318 318 320 322 322 323 324 323 323 325 326 326
219 221 222 221 220 215 209 205 201 200 202 203 204 203 202 202 202 203 203 203 202 201 201 200 200 201 201 201 202 204 208 213 217 220 223 226 229 234 237 239 242 244 247 259 274 287 302 312 315 310 305 304 304 303 302 302 301 301 299 296 295 294 293 294 294 296 299 301 303 305 307 309 311 314 316 318 320 321 321 322 322 323 325 326 327
220 222 222 222 221 216 211 207 204 202 203 205 205 204 204 204 205 206 205 205 204 203 203 203 204 205 205 206 207 209 213 217 221 225 228 229 232 236 238 240 244 247 252 260 270 282 296 308 312 309 306 304 304 302 302 303 302 301 299 297 295 293 292 293 293 294 297 299 301 304 305 307 309 312 314 316 317 318 319 320 321 322 324 326 326
220 222 223 224 223 219 213 210 207 205 205 207 206 206 206 207 207 207 207 206 205 205 204 205 208 209 209 209 211 215 218 221 225 229 229 230 234 236 238 242 246 251 255 259 267 278 290 302 307 306 305 304 303 303 302 303 303 301 300 298 295 293 292 291 291 291 293 296 299 301 303 305 307 310 312 313 314 315 316 318 319 320 323 325 324
221 222 223 225 225 221 216 213 210 208 208 209 208 208 208 209 209 208 208 207 207 207 207 208 210 212 213 214 216 220 223 226 230 232 231 232 234 235 239 245 250 253 257 260 266 275 284 295 300 302 303 303 302 303 303 302 302 301 300 299 296 294 292 290 290 289 290 293 296 298 300 302 304 306 309 311 312 313 314 316 318 320 322 323 324
221 222 223 224 225 223 219 216 214 212 210 210 210 210 210 210 210 210 209 209 209 210 211 212 213 214 216 218 221 224 227 230 233 233 232 234 235 236 241 247 251 254 258 261 265 272 281 290 295 299 301 301 299 301 302 302 301 301 301 300 297 295 293 292 290 289 289 291 293 295 297 299 301 304 307 309 311 312 313 314 316 319 321 322 322
222 222 223 224 226 225 222 219 217 215 213 212 213 212 212 212 212 212 211 211 212 213 214 216 217 217 218 220 224 227 229 232 233 232 232 234 236 239 244 248 252 255 259 261 264 270 279 286 292 297 300 299 297 298 299 300 299 299 300 299 297 296 294 292 290 290 290 290 291 293 294 296 299 302 305 307 309 312 313 313 315 318 320 321 322
223 223 223 224 226 226 224 222 219 218 216 214 215 215 214 214 214 214 214 214 215 216 218 219 219 220 221 223 226 229 230 232 232 231 232 234 236 241 246 249 252 256 259 261 264 270 278 284 290 295 298 299 297 295 296 296 296 297 298 297 296 295 294 292 291 289 289 289 289 291 292 294 297 300 302 305 307 310 313 314 315 316 317 319 323
224 224 224 225 226 226 226 223 221 220 218 216 216 216 216 216 216 217 217 217 218 219 220 221 222 223 225 226 228 230 231 232 232 232 234 236 240 244 247 249 252 256 259 261 265 270 277 283 288 293 297 298 297 295 293 292 294 296 296 295 294 293 293 291 289 289 288 287 288 289 291 292 296 299 301 304 307 309 311 313 313 314 317 320 324
224 224 225 225 226 227 226 224 222 221 219 217 217 218 217 218 218 219 220 220 220 221 222 223 224 226 228 230 231 232 233 233 233 233 235 238 242 245 247 249 253 257 259 261 265 271 277 281 286 291 295 297 297 295 292 290 292 294 294 293 292 292 291 290 289 288 287 286 287 288 289 291 295 299 300 303 306 307 309 311 313 316 320 323 324
225 225 225 226 227 228 227 224 223 222 221 218 218 219 219 219 220 221 222 222 222 223 224 225 226 228 230 232 234 235 236 236 235 235 237 239 241 243 246 249 253 257 260 262 266 271 276 279 284 289 292 295 296 294 291 290 291 292 293 292 292 292 291 290 290 289 287 287 287 287 289 292 294 297 299 302 304 306 309 312 314 316 319 321 322
225 226 226 226 227 228 227 225 224 224 222 220 220 221 221 222 223 224 225 225 225 225 226 228 229 231 233 234 236 237 238 238 237 237 239 241 242 244 246 249 253 257 260 262 267 271 275 278 283 287 291 293 294 294 291 289 288 289 290 290 291 292 293 293 292 291 289 288 288 288 290 292 293 295 298 300 302 305 308 311 311 312 315 317 317
225 226 226 227 228 228 228 226 225 225 224 222 222 222 223 225 226 227 228 228 228 228 229 231 232 234 236 237 238 239 240 239 238 239 242 243 245 246 247 250 254 257 260 263 267 270 274 278 283 287 290 291 292 293 291 289 287 286 287 287 289 290 292 292 292 291 290 289 289 290 291 291 292 293 296 299 303 304 305 307 308 309 312 314 313
226 226 226 227 228 228 228 228 227 227 226 225 225 225 226 228 230 230 231 231 231 232 233 234 236 237 238 240 241 242 242 241 240 242 244 245 247 249 250 251 255 257 259 263 267 270 274 278 283 287 289 289 290 291 290 288 286 285 284 285 287 288 288 289 289 288 287 286 287 289 289 288 289 290 294 299 301 301 302 305 307 308 310 310 310
226 226 227 227 228 229 229 229 230 230 229 228 228 229 230 232 233 233 233 234 236 237 238 239 240 241 242 243 244 246 246 244 243 244 246 247 249 251 252 253 255 258 260 263 267 270 274 277 282 286 287 288 289 289 289 287 285 284 283 283 285 285 286 287 287 286 284 284 284 285 285 285 286 288 293 296 294 296 299 300 301 304 305 305 306
227 227 228 229 230 231 232 232 233 233 233 233 232 233 234 235 236 235 236 238 240 241 242 243 244 244 245 246 247 249 249 247 246 247 247 248 249 252 254 255 257 260 262 265 268 271 274 277 281 284 285 287 288 287 286 285 283 282 282 282 284 285 285 286 286 286 285 284 283 282 282 282 283 284 287 289 290 293 293 293 296 299 300 301 305
230 230 231 232 234 235 236 236 236 236 236 236 236 237 238 239 240 240 240 241 242 244 245 246 246 246 247 249 250 252 253 251 250 250 249 249 250 253 257 259 260 263 265 267 270 272 275 278 280 282 285 286 286 284 283 282 282 281 281 281 282 284 285 285 285 286 286 285 282 281 279 279 279 281 283 285 286 288 289 292 297 298 298 301 306
234 235 236 238 239 240 240 240 240 241 242 243 244 245 245 245 245 244 243 244 245 247 248 248 249 249 251 253 254 255 256 255 254 253 252 251 252 255 259 262 264 266 267 269 271 273 276 278 279 281 283 285 285 283 280 280 280 279 280 280 281 283 284 286 286 286 285 283 280 278 276 276 276 277 280 283 285 287 289 293 295 295 297 302 306
235 236 239 241 242 243 243 244 246 247 249 250 251 252 251 250 248 246 246 246 247 249 250 250 252 253 255 256 257 257 258 258 257 256 254 253 254 257 260 263 265 267 269 271 273 275 276 279 280 281 283 283 283 282 281 280 278 278 278 278 279 281 285 287 286 286 285 282 279 277 277 278 279 279 283 287 288 288 289 289 291 293 296 300 304
227 229 234 237 240 243 245 246 248 248 250 252 254 256 255 253 251 249 249 249 250 250 251 252 254 255 257 259 260 260 261 261 260 259 257 256 256 258 260 263 265 268 271 273 275 277 278 280 281 281 282 282 283 283 282 279 277 276 275 274 276 281 284 285 284 284 284 281 280 280 281 282 283 285 288 290 289 287 286 286 287 291 294 298 301
197 205 215 220 226 232 234 237 239 241 245 249 251 253 253 252 252 251 251 252 252 253 254 254 256 258 260 261 263 263 263 263 262 261 260 259 259 259 261 264 267 269 272 274 276 277 278 279 280 281 282 282 283 283 282 279 277 275 273 273 276 279 280 281 282 283 283 283 283 283 283 284 286 288 290 290 288 284 283 284 286 289 292 295 297
174 187 200 209 215 221 224 226 229 231 236 240 242 245 247 249 250 252 253 254 255 256 257 258 260 262 263 264 265 265 264 264 264 264 263 262 261 261 262 264 267 268 270 272 274 276 277 279 280 281 281 282 282 281 280 278 276 274 274 275 277 277 278 281 283 281 281 283 285 283 282 284 286 288 289 290 287 283 282 282 284 287 289 290 293
185 196 206 213 215 217 219 222 224 228 231 235 239 242 245 247 250 251 252 254 256 257 258 260 261 263 263 263 264 263 263 264 265 266 265 265 263 262 262 263 265 267 269 271 273 275 277 278 279 280 280 280 280 279 278 275 273 273 274 275 275 276 278 280 278 275 276 280 280 279 280 282 284 286 288 287 283 281 280 281 282 284 285 285 287
201 207 211 213 212 211 212 214 217 221 224 229 234 237 239 242 245 247 249 251 253 254 256 258 259 261 261 261 261 262 263 264 265 266 266 265 265 264 264 264 265 266 268 271 273 274 276 278 279 280 280 280 280 279 278 276 273 272 272 271 271 272 273 272 270 270 273 275 275 275 279 281 283 286 285 283 279 278 278 279 280 281 282 282 284
201 202 202 202 201 202 203 206 210 213 217 222 227 230 234 238 240 244 246 248 251 254 255 257 258 260 261 263 264 265 266 266 266 266 266 267 268 268 269 268 267 266 268 271 274 276 278 280 281 281 281 281 281 280 279 278 276 273 272 270 270 269 267 265 265 267 270 272 273 276 279 281 283 285 283 280 278 278 277 277 278 278 279 280 283
184 185 188 190 192 195 198 201 205 208 213 219 225 229 235 240 243 247 250 253 255 258 259 261 262 264 266 267 269 270 270 270 270 270 271 272 273 274 274 274 272 271 271 272 274 276 278 280 282 282 283 283 282 281 280 280 278 276 273 269 267 265 264 264 265 267 270 271 273 276 279 282 284 284 282 279 278 277 277 277 277 276 277 279 282
176 179 183 186 189 192 194 197 202 207 212 219 228 234 241 248 251 255 258 260 262 264 265 265 266 267 269 270 272 273 273 273 274 275 276 277 277 277 277 277 277 277 276 276 277 277 278 279 280 281 282 283 283 282 281 281 279 277 275 272 268 267 267 267 268 268 269 271 273 275 278 281 284 284 281 278 276 277 277 277 278 278 278 279 282
177 180 183 185 185 188 191 195 200 209 218 228 238 246 252 257 260 262 265 265 266 267 267 268 269 271 272 273 273 273 274 275 276 277 278 278 278 279 280 281 282 282 282 282 282 281 280 278 277 277 278 278 280 280 281 281 281 281 280 280 279 277 273 270 268 267 268 270 273 276 279 282 284 283 279 275 275 276 276 276 278 280 281 283 286
177 179 182 184 186 191 198 207 217 227 237 245 250 254 257 260 262 263 265 266 267 268 269 270 271 273 274 274 275 275 276 278 279 279 280 280 281 282 283 283 284 285 285 285 284 283 282 280 278 277 275 275 276 277 278 279 281 282 283 284 284 281 277 274 272 272 272 273 274 276 279 282 283 281 277 274 274 275 275 275 277 280 282 285 288
172 179 186 193 201 209 219 227 234 239 244 249 252 256 260 263 265 266 268 269 270 271 272 273 274 274 275 276 277 278 278 280 280 281 281 282 283 284 285 285 286 287 286 286 284 283 281 280 279 278 275 274 275 275 276 277 279 281 282 282 281 279 277 276 276 276 276 276 276 277 279 280 280 279 277 274 274 274 274 275 277 279 282 285 289
185 194 200 208 215 221 226 232 238 243 248 253 257 261 264 268 270 272 273 273 274 275 276 276 277 277 277 278 278 279 279 280 281 281 282 283 284 285 286 287 288 289 289 288 285 283 282 280 280 280 279 278 278 278 279 279 280 282 282 282 281 280 278 277 277 277 276 276 277 278 278 278 280 281 278 275 274 274 273 273 275 279 282 285 289
210 213 216 221 225 229 234 239 247 254 259 263 266 268 270 272 274 275 276 277 277 277 277 277 277 278 278 279 279 279 279 279 280 281 282 283 284 285 285 286 288 291 293 290 286 285 286 285 284 284 284 284 284 285 286 286 286 286 287 286 287 287 285 283 281 278 275 276 279 281 281 282 286 287 281 276 275 275 273 273 275 278 281 284 289
227 230 232 234 236 239 244 250 258 263 266 269 270 271 273 274 275 276 277 277 277 276 276 276 276 276 277 277 278 279 280 281 283 284 285 286 287 288 288 289 290 291 291 287 284 286 289 291 292 293 294 293 293 292 292 291 291 291 290 290 291 292 291 288 283 277 274 276 281 284 283 284 288 289 283 277 275 274 274 275 276 278 281 285 289
238 239 240 241 244 248 254 261 265 268 270 271 273 274 275 275 275 276 276 276 276 276 275 275 275 275 275 277 278 280 282 284 285 286 288 289 290 291 292 292 290 285 279 274 273 276 279 281 285 287 289 290 290 290 290 289 289 289 288 287 288 289 288 285 281 276 274 276 282 283 281 281 286 289 284 277 274 273 274 276 278 280 283 287 291
243 243 245 248 253 259 264 268 270 272 273 274 276 276 277 277 277 276 275 275 275 276 277 277 278 278 278 279 281 283 285 287 288 288 289 289 289 290 291 292 290 286 280 272 267 266 266 266 268 270 272 274 276 278 279 281 282 282 283 284 285 285 282 279 276 274 274 277 280 279 275 277 283 287 282 275 272 272 273 276 279 282 285 289 293
248 250 254 258 262 267 270 271 273 275 276 277 279 279 279 279 279 278 277 277 277 278 279 281 282 283 285 285 285 285 285 285 286 287 288 289 290 291 291 289 289 288 285 281 275 271 268 267 267 268 268 269 271 273 275 277 277 277 277 278 278 278 277 276 275 276 277 277 275 271 271 277 284 284 278 272 270 270 273 276 279 283 287 291 294
255 258 262 265 268 271 273 275 277 279 280 280 281 281 281 282 282 282 282 282 282 282 282 282 283 285 286 287 287 286 284 283 283 284 286 287 289 290 289 288 288 288 287 286 285 282 279 276 274 273 272 272 273 274 275 276 277 278 277 276 275 275 275 275 277 280 279 273 267 267 273 282 286 281 273 269 269 270 273 276 279 282 287 291 294
263 266 269 271 273 275 278 281 282 283 284 284 284 284 285 285 285 286 287 286 286 285 284 283 282 282 282 283 283 283 283 285 286 287 288 288 288 288 288 288 288 289 290 291 291 290 289 287 285 283 281 280 279 279 278 278 278 278 279 279 279 278 278 278 278 277 273 267 266 271 278 284 284 277 270 267 267 269 272 275 279 283 286 290 294
272 275 275 277 279 281 283 284 285 285 286 286 286 286 286 285 285 286 286 286 286 285 284 282 280 279 279 280 280 282 284 287 288 288 287 287 288 289 290 291 291 292 293 294 295 295 294 294 293 293 291 290 288 287 285 284 282 281 281 280 280 279 279 277 275 270 267 267 270 275 279 281 278 272 266 265 266 269 272 275 279 283 287 290 293
275 277 278 279 281 282 282 283 284 283 284 284 284 283 284 284 285 286 286 286 286 285 284 284 283 282 282 281 282 285 288 289 289 288 287 288 288 289 291 294 296 297 298 298 299 299 300 301 301 301 300 299 298 296 293 291 290 288 286 283 280 278 275 272 269 266 266 268 271 275 277 277 272 266 263 264 266 269 272 276 280 284 287 290 293
275 277 278 279 279 280 280 281 281 281 282 283 283 284 285 286 286 286 286 285 285 285 285 286 287 287 287 287 287 290 293 292 291 291 293 294 296 298 299 301 302 302 303 303 304 304 305 306 306 305 305 305 304 302 300 297 296 296 293 289 282 277 273 270 267 266 266 267 270 273 273 270 264 261 261 263 266 269 274 278 282 285 288 290 293
273 274 275 276 277 278 280 282 283 285 286 287 287 287 286 285 285 284 284 285 286 287 288 289 289 290 290 290 291 294 296 296 298 299 301 303 305 306 307 307 307 307 308 308 308 309 310 310 310 309 308 308 307 306 304 302 301 300 298 294 288 282 277 273 271 269 268 268 268 268 265 260 258 258 261 264 268 271 275 279 282 285 288 290 292
269 271 273 274 276 280 284 288 290 290 290 289 288 286 284 283 284 285 285 287 288 288 289 290 290 290 291 291 292 294 297 299 302 304 306 307 308 308 307 308 309 310 310 310 311 312 314 315 314 313 312 312 311 309 308 307 306 303 301 297 292 286 281 277 275 272 269 265 261 259 256 254 256 259 263 266 270 273 276 280 284 285 287 289 291
268 269 269 272 279 285 288 290 289 288 287 285 283 283 283 284 285 286 287 287 287 288 288 289 289 290 291 292 293 295 298 300 303 304 305 305 305 305 305 306 308 309 310 310 311 313 315 316 316 316 316 315 313 312 311 310 308 305 303 299 296 292 287 284 281 277 269 261 256 254 254 255 258 262 265 268 272 276 279 282 284 285 286 288 290
260 259 265 276 283 287 287 287 285 283 282 282 283 284 285 286 286 287 286 286 286 286 286 286 287 288 290 292 294 296 298 300 301 302 302 302 303 303 304 306 307 308 309 309 310 311 313 314 314 315 316 315 314 313 312 310 307 306 305 303 301 300 297 292 285 276 267 261 258 257 258 259 262 265 269 272 275 278 280 281 283 285 286 288 289
250 255 267 276 281 282 281 280 279 279 280 280 282 283 283 284 284 284 284 285 285 285 285 285 286 287 289 291 293 295 296 298 299 299 299 300 301 302 303 305 306 307 307 308 310 311 312 312 313 313 313 313 312 311 310 309 308 307 307 307 306 306 302 294 284 275 268 266 264 264 265 266 268 271 273 275 277 278 280 282 283 285 286 286 288
252 258 265 269 271 273 274 274 274 276 278 279 280 280 281 281 281 282 283 283 284 284 285 285 286 287 288 289 291 293 294 295 296 297 297 298 299 300 302 303 304 305 306 308 309 310 311 312 312 311 311 310 310 309 309 308 307 307 308 307 305 302 296 289 283 277 273 272 271 271 271 272 274 275 276 277 278 279 281 283 283 284 284 286 288
253 256 259 262 263 265 267 270 272 274 276 277 279 279 280 280 281 281 282 283 283 283 284 284 284 285 286 288 290 291 292 293 294 294 294 295 297 298 300 302 304 305 306 307 308 308 309 311 311 310 310 310 310 309 308 307 306 305 304 302 299 296 291 286 281 279 277 275 275 275 275 275 276 277 277 278 279 281 282 282 282 282 283 285 288
250 252 255 259 263 265 269 272 274 276 277 278 280 280 281 281 282 282 282 282 282 282 282 282 283 285 287 288 289 290 291 291 292 292 292 294 295 296 298 301 303 304 306 307 308 308 309 309 309 308 308 310 311 311 309 307 304 302 300 297 295 292 289 286 283 281 279 277 277 277 277 277 278 278 279 280 281 281 281 281 280 280 281 283 287
252 255 260 264 267 270 273 274 276 277 279 279 280 281 281 281 282 282 281 281 281 281 282 283 284 286 287 288 288 288 288 289 289 289 290 291 292 293 295 298 300 302 304 306 307 308 309 309 308 307 307 308 310 311 310 308 305 301 298 296 293 291 288 286 284 282 280 280 279 279 279 280 280 280 281 281 280 279 279 278 277 277 279 282 286
258 262 265 269 271 272 274 275 276 278 278 278 278 279 278 278 278 278 278 279 280 280 281 283 284 285 286 287 286 286 286 286 286 287 287 287 287 288 290 293 295 297 299 301 303 305 307 307 306 306 307 308 309 310 309 307 305 302 299 296 294 291 289 287 285 284 282 282 281 281 280 281 281 280 280 279 277 276 276 275 275 276 278 281 284